Starlink 34948

operational
NORAD ID: 65191 Int'l Des: 2025-175 Owner: SPXS Country: US Constellation: starlink
LEOCIRCULARRETROGRADESSO

Starlink 34948について

説明を読み込み中...

リアルタイム位置

3D地球を読み込み中...

次回通過

高度履歴

Altitude vs Time

uPlot chart will show altitude changes over time

軌道要素

1 65191U 25175T 25340.92069829 .00012030 00000-0 83628-3 0 9997
2 65191 97.6020 211.2503 0002262 81.8769 278.2715 15.05661276 18687
Epoch: Dec 6, 2025 • Age: 20 hours

現在のステータス

高度 575.1 km
速度 7.57 km/s
衛星直下点 -63.18°S, 25.34°E
打ち上げ日 Aug 14, 2025
運用期間 0.3 years
タイプ internet

技術仕様

分類 Payload
質量 575.00 kg
乾燥質量 530.00 kg
総質量 575.00 kg
長さ 0.30 m
直径 4.10 m
スパン 29.00 m
形状 Box + pan
製造者 SPXS
バスタイプ Starlink V2MO
フェーズステータス In Orbit
所有者/国 SPXS/US

大規模コンステレーション

Loading constellations...